Regional Weather Roundup
Issued by NWS Newport/Morehead, NC

Current Version | Previous Version | Graphics & Text | Print | Product List | Glossary On
Versions: 1 2 3 4 5 6 7 8 9 10 11 12 13 14 15 16 17 18 19 20 21 22 23 24 25 26 27 28 29 30 31 32 33 34 35 36 37 38 39 40 41 42 43 44 45 46 47 48 49 50
000 ASUS42 KMHX 250625 RWRMHX WEATHER ROUNDUP FOR EASTERN NORTH CAROLINA NATIONAL WEATHER SERVICE NEWPORT/MOREHEAD CITY NC 200 AM EDT THU AUG 25 2016 NOTE: "FAIR" INDICATES FEW OR NO CLOUDS BELOW 12,000 FEET WITH NO SIGNIFICANT WEATHER AND/OR OBSTRUCTIONS TO VISIBILITY NCZ015>017-031-032-045>047-102-103-250700- NORTH COAST CITY SKY/WX TMP DP RH WIND PRES REMARKS EDENTON CLEAR N/A N/A N/A CALM 30.18F ELIZABETH CITY PTCLDY 69 68 96 SW3 30.18F KITTY HAWK CLEAR 72 71 95 CALM 30.16F MANTEO CLEAR 70 68 93 CALM 30.17F $$ NCZ045>047-081-094-103-104-250700- CENTRAL COAST CITY SKY/WX TMP DP RH WIND PRES REMARKS FRISCO CLEAR 73 66 78 E6 30.17F $$ NCZ095-097-098-100-101-250700- SOUTHERN COAST CITY SKY/WX TMP DP RH WIND PRES REMARKS BEAUFORT CLEAR 72 71 97 CALM 30.17F CEDAR ISLAND NOT AVBL JACKSONVILLE PTCLDY 75 70 84 NE6 30.16F PINEY ISLAND NOT AVBL WILMINGTON CLEAR 71 68 90 N3 30.16F $$ NCZ011>013-027>030-043-044-078>080-089-090>093-098-250700- COASTAL PLAIN CITY SKY/WX TMP DP RH WIND PRES REMARKS AHOSKIE CLEAR 64 63 97 CALM 30.19F CLINTON PTCLDY 67 67 99 CALM 30.18F ELIZABETHTOWN CLEAR 69 65 88 CALM 30.18F GOLDSBORO CLEAR 69 66 90 CALM 30.17F GREENVILLE CLEAR 68 68 100 CALM 30.19F HAVELOCK PTCLDY 73 70 90 CALM 30.18F KENANSVILLE NOT AVBL KINSTON CLEAR 66 65 94 CALM 30.20S NEW BERN PTCLDY 71 69 93 CALM 30.19F RICHLANDS PTCLDY 69 66 90 CALM 30.18F ROCKY MOUNT CLEAR 64 64 100 CALM 30.19F WASHINGTON CLEAR 68 67 95 CALM 30.18F WHITEVILLE CLEAR 68 65 92 CALM 30.17F $$ AMZ130-135-150-152-154-156-158-170-250-252-270-ANZ085-086-088-633-658-670-250700- MARINE OBSERVATIONS STATION/POSITION TIME TEMP WIND PRES WAVE SWELL AIR SEA DIR/SP/G HT/PER HT/PER (UTC) (F) (DEG/KT/KT) (MB) (FT/S) (FT/S) CHESAPEAKE LIGHT NOT AVBL 64 E VA BEACH 0550 79 81 170/ 6/ 8 1021.3 2/11 2/11 DUCK 0600 77 78 180/ 4/ 5 1021.1 2 E DUCK 0511 78 N/A 3/11 2/11 OREGON INLET 0600 75 79 130/ 3/ 4 1021.3 13E OREGON INLT 0600 78 N/A 3/11 3/11 HATTERAS CG 0600 76 80 60/ 2/ 3 1021.1 DIAMOND BUOY 0550 81 84 90/ 12/ 14 1021.3 3/11 3/11 CAPE LOOKOUT 0600 80 90/ 12/ 13 1021.1 BEAUFORT LAB 0600 77 80 60/ 3/ 5 1021.0 30 SE NEW RVR IN 0608 81 84 110/ 10/ 14 1020.8 30 SE NEW RVR IN 0525 84 N/A 3/ 7 27 SE WRIGHTSVLE 0608 82 84 110/ 12/ 16 1020.8 5 SE WRIGHTSVLE 0508 82 83 130/ 12/ 16 1022.1 225 S CAPE HAT 0550 82 85 60/ 17/ 19 1018.7 6/ 6 3/10 41 SE CHARLESTON 0550 82 84 50/ 12/ 14 1019.7 3/ 8 2/ 8 $$

USA.gov is the U.S. government's official web portal to all federal, state and local government web resources and services.